China Weather Yanqing today hourly
Home / China / Yanqing / Yanqing Hour By Hour Weather - 24hr View

48 Hour View

Time Temp. Wind Dir. Humidity Wind Spd. Precip.
2020-07-20 20:00pm 25°C NE 91% 1km/h 0%
2020-07-20 21:00pm 24°C NE 92% 8km/h 0%
2020-07-20 22:00pm 24°C NE 93% 11km/h 0%
2020-07-20 23:00pm 23°C NE 94% 2km/h 0%
2020-07-21 00:00pm 22°C NE 95% 6km/h 0%
2020-07-21 01:00pm 22°C NE 95% 3km/h 0%
2020-07-21 02:00pm 21°C NE 96% 10km/h 0%
2020-07-21 03:00pm 20°C NE 96% 7km/h 0%
2020-07-21 04:00pm 20°C NE 96% 9km/h 0%
2020-07-21 05:00pm 20°C NE 97% 3km/h 0%
2020-07-21 06:00pm 21°C NE 95% 11km/h 0%
2020-07-21 07:00pm 22°C NE 93% 3km/h 0%
2020-07-21 08:00pm 24°C NE 91% 2km/h 0%
2020-07-21 09:00pm 25°C E 85% 7km/h 0%
2020-07-21 10:00pm 26°C E 79% 8km/h 0%
2020-07-21 11:00pm 27°C SE 73% 2km/h 0%
2020-07-21 12:00pm 28°C SE 70% 10km/h 0%
2020-07-21 13:00pm 29°C SE 67% 1km/h 0%
2020-07-21 14:00pm 30°C SE 65% 5km/h 0%
2020-07-21 15:00pm 30°C SE 67% 8km/h 0%
2020-07-21 16:00pm 29°C SE 69% 11km/h 0%
2020-07-21 17:00pm 29°C SE 71% 11km/h 0%
2020-07-21 18:00pm 28°C SE 73% 4km/h 0%
2020-07-21 19:00pm 26°C SE 75% 4km/h 0%
2020-07-21 19:00pm 25°C SE 88% 9km/h 0%
2020-07-21 20:00pm 24°C N 93% 3km/h 0%
2020-07-21 21:00pm 23°C N 94% 11km/h 0%
2020-07-21 22:00pm 23°C N 96% 5km/h 0%
2020-07-21 23:00pm 22°C N 97% 3km/h 0%
2020-07-22 00:00pm 21°C SE 97% 8km/h 0%
2020-07-22 01:00pm 20°C SW 98% 3km/h 0%
2020-07-22 02:00pm 19°C N 98% 3km/h 0%
2020-07-22 03:00pm 19°C N 98% 11km/h 0%
2020-07-22 04:00pm 18°C N 98% 1km/h 0%
2020-07-22 05:00pm 18°C N 98% 5km/h 0%
2020-07-22 06:00pm 19°C SW 97% 9km/h 0%
2020-07-22 07:00pm 21°C SE 96% 7km/h 0%
2020-07-22 08:00pm 22°C N 96% 6km/h 0%
2020-07-22 09:00pm 24°C NE 86% 8km/h 0%
2020-07-22 10:00pm 25°C E 77% 9km/h 0%
2020-07-22 11:00pm 26°C SE 68% 2km/h 0%
2020-07-22 12:00pm 26°C SE 66% 1km/h 0%
2020-07-22 13:00pm 27°C SE 63% 2km/h 0%
2020-07-22 14:00pm 28°C SE 61% 6km/h 0%
2020-07-22 15:00pm 28°C SE 62% 3km/h 0%
2020-07-22 16:00pm 28°C SE 64% 10km/h 0%
2020-07-22 17:00pm 27°C SE 65% 4km/h 0%
2020-07-22 18:00pm 25°C SE 68% 4km/h 0%

More Local Information

Hourly Weather Nearby

Bookmark and Share

Become A Member